Wrangell, AK

8:39 AM AKDT on October 22, 2017 (GMT -0800)
Wrangell

Weather History for PAWG - July, 2013

Change the Weather History Date:

Wednesday, July 3, 2013

  Actual Average Record
Temperature  
Mean Temperature 55 °F -  
Max Temperature 57 °F 63 °F 76 °F (1972)
Min Temperature 53 °F 47 °F 34 °F (1973)
Degree Days  
Heating Degree Days 10    
Growing Degree Days 5 (Base 50)    
Moisture  
Dew Point 49 °F    
Average Humidity 82    
Maximum Humidity 94    
Minimum Humidity 72    
Precipitation  
Precipitation 0.08 in - - ()
Sea Level Pressure  
Sea Level Pressure 30.20 in    
Wind  
Wind Speed 2 mph (NNE)    
Max Wind Speed 7 mph    
Max Gust Speed -    
Visibility 10 miles    
Events      
Averages and records for this station are not official NWS values.
T = Trace of Precipitation, MM = Missing Value Source: NWS Daily Summary

Daily Weather History Graph

Daily Weather History Graph

Search for Another Location

Airport or City:

Trip Planner

Search our weather history database for the weather conditions in past years. The results will help you decide how hot, cold, wet, or windy it might be!

Date:

Astronomy

Jul. 03, 2013 Rise Set
Actual Time 4:06 AM AKDT 9:40 PM AKDT
Civil Twilight 3:03 AM AKDT 10:43 PM AKDT
Nautical Twilight 1:26 AM AKDT 12:21 AM AKDT
Astronomical Twilight Sun does not rise Sun does not rise
Moon 1:16 AM AKDT (7/3) 5:36 PM AKDT (7/3)
Length of Visible Light 19h 39m
Length of Day
17h 34m
Waning Crescent, 17% of the Moon is Illuminated
Jul 3
Waning Crescent
Jul 7
New
Jul 15
First Quarter
Jul 22
Full
Jul 29
Last Quarter

Hourly Weather History & Observations

Time (AKDT) Temp. Dew Point Humidity Pressure Visibility Wind Dir Wind Speed Gust Speed Precip Events Conditions
12:16 AM 55.4 °F 46.4 °F 72% 30.19 in 10.0 mi Calm Calm - N/A   Overcast
12:36 AM 55.4 °F 48.2 °F 77% 30.19 in 5.0 mi Calm Calm - N/A   Overcast
12:56 AM 55.4 °F 46.4 °F 72% 30.19 in 10.0 mi Calm Calm - N/A   Overcast
1:16 AM 55.4 °F 46.4 °F 72% 30.19 in 10.0 mi Calm Calm - N/A   Overcast
1:36 AM 55.4 °F 46.4 °F 72% 30.19 in 10.0 mi SE 3.5 mph - N/A   Overcast
1:56 AM 55.4 °F 46.4 °F 72% 30.19 in 10.0 mi SE 3.5 mph - N/A   Overcast
2:16 AM 55.4 °F 46.4 °F 72% 30.19 in 10.0 mi Calm Calm - N/A   Overcast
2:36 AM 55.4 °F 46.4 °F 72% 30.19 in 10.0 mi Calm Calm - N/A   Overcast
2:56 AM 53.6 °F 46.4 °F 77% 30.19 in 10.0 mi NW 5.8 mph - N/A   Overcast
3:16 AM 53.6 °F 46.4 °F 77% 30.20 in 10.0 mi NNW 3.5 mph - N/A   Overcast
3:36 AM 53.6 °F 46.4 °F 77% 30.19 in 10.0 mi Calm Calm - N/A   Overcast
3:56 AM 53.6 °F 48.2 °F 82% 30.19 in 10.0 mi SE 4.6 mph - N/A   Overcast
4:16 AM 53.6 °F 46.4 °F 77% 30.19 in 10.0 mi Calm Calm - N/A   Overcast
4:36 AM 53.6 °F 48.2 °F 82% 30.19 in 10.0 mi SE 3.5 mph - N/A   Overcast
4:56 AM 53.6 °F 48.2 °F 82% 30.19 in 10.0 mi ESE 5.8 mph - N/A   Overcast
5:16 AM 53.6 °F 48.2 °F 82% 30.19 in 10.0 mi ESE 5.8 mph - N/A   Overcast
5:36 AM 53.6 °F 48.2 °F 82% 30.19 in 10.0 mi SE 5.8 mph - N/A   Overcast
5:56 AM 53.6 °F 48.2 °F 82% 30.19 in 10.0 mi ESE 5.8 mph - N/A   Overcast
6:16 AM 53.6 °F 48.2 °F 82% 30.19 in 10.0 mi ESE 5.8 mph - N/A   Overcast
6:36 AM 53.6 °F 48.2 °F 82% 30.20 in 10.0 mi Calm Calm - N/A   Overcast
6:56 AM 55.4 °F 48.2 °F 77% 30.20 in 10.0 mi SE 3.5 mph - N/A   Overcast
7:16 AM 55.4 °F 48.2 °F 77% 30.20 in 10.0 mi ESE 3.5 mph - N/A   Overcast
7:36 AM 55.4 °F 48.2 °F 77% 30.20 in 10.0 mi ESE 4.6 mph - N/A   Overcast
7:56 AM 55.4 °F 48.2 °F 77% 30.21 in 10.0 mi SE 3.5 mph - N/A   Overcast
8:16 AM 55.4 °F 48.2 °F 77% 30.21 in 10.0 mi Calm Calm - N/A   Overcast
8:36 AM 55.4 °F 48.2 °F 77% 30.21 in 10.0 mi Calm Calm - N/A   Overcast
8:56 AM 55.4 °F 48.2 °F 77% 30.21 in 10.0 mi Calm Calm - N/A   Overcast
9:16 AM 57.2 °F 48.2 °F 72% 30.21 in 10.0 mi SW 4.6 mph - N/A   Overcast
9:36 AM 57.2 °F 48.2 °F 72% 30.21 in 10.0 mi SW 6.9 mph - N/A   Overcast
9:56 AM 55.4 °F 50.0 °F 82% 30.22 in 10.0 mi Calm Calm - N/A   Overcast
10:16 AM 53.6 °F 48.2 °F 82% 30.22 in 10.0 mi Calm Calm - N/A   Overcast
10:36 AM 53.6 °F 50.0 °F 88% 30.21 in 10.0 mi Calm Calm - N/A   Overcast
10:56 AM 53.6 °F 48.2 °F 82% 30.21 in 10.0 mi Calm Calm - N/A   Overcast
11:16 AM 55.4 °F 48.2 °F 77% 30.21 in 10.0 mi Calm Calm - N/A   Overcast
11:36 AM 53.6 °F 48.2 °F 82% 30.21 in 10.0 mi North 4.6 mph - N/A   Overcast
11:56 AM 53.6 °F 48.2 °F 82% 30.22 in 10.0 mi North 4.6 mph - N/A   Overcast
12:16 PM 53.6 °F 48.2 °F 82% 30.22 in 10.0 mi NNW 3.5 mph - N/A   Overcast
12:36 PM 53.6 °F 50.0 °F 88% 30.22 in 10.0 mi NNW 4.6 mph - N/A   Overcast
12:56 PM 53.6 °F 50.0 °F 88% 30.21 in 10.0 mi North 5.8 mph - N/A   Overcast
1:16 PM 53.6 °F 50.0 °F 88% 30.22 in 10.0 mi North 4.6 mph - N/A   Overcast
1:36 PM 55.4 °F 50.0 °F 82% 30.21 in 10.0 mi NNW 5.8 mph - N/A   Overcast
1:56 PM 55.4 °F 50.0 °F 82% 30.21 in 10.0 mi North 6.9 mph - N/A   Overcast
2:16 PM 55.4 °F 50.0 °F 82% 30.21 in 10.0 mi NNW 5.8 mph - N/A   Overcast
2:36 PM 55.4 °F 50.0 °F 82% 30.21 in 10.0 mi North 4.6 mph - N/A   Overcast
2:56 PM 55.4 °F 48.2 °F 77% 30.21 in 10.0 mi North 3.5 mph - N/A   Overcast
3:16 PM 55.4 °F 48.2 °F 77% 30.21 in 10.0 mi NW 4.6 mph - N/A   Overcast
3:36 PM 55.4 °F 50.0 °F 82% 30.21 in 7.0 mi North 4.6 mph - N/A   Overcast
3:56 PM 55.4 °F 50.0 °F 82% 30.21 in 7.0 mi Calm Calm - N/A   Overcast
4:16 PM 55.4 °F 50.0 °F 82% 30.20 in 7.0 mi Calm Calm - N/A   Overcast
4:36 PM 55.4 °F 51.8 °F 88% 30.20 in 7.0 mi Calm Calm - N/A   Overcast
4:56 PM 55.4 °F 50.0 °F 82% 30.20 in 7.0 mi Calm Calm - N/A   Overcast
5:16 PM 55.4 °F 51.8 °F 88% 30.19 in 10.0 mi ESE 3.5 mph - N/A   Mostly Cloudy
5:36 PM 55.4 °F 51.8 °F 88% 30.18 in 10.0 mi SE 3.5 mph - N/A   Mostly Cloudy
5:56 PM 55.4 °F 51.8 °F 88% 30.18 in 10.0 mi Calm Calm - 0.01 in   Mostly Cloudy
6:16 PM 57.2 °F 51.8 °F 82% 30.18 in 10.0 mi Calm Calm - N/A   Mostly Cloudy
6:36 PM 55.4 °F 51.8 °F 88% 30.18 in 10.0 mi NW 4.6 mph - N/A   Mostly Cloudy
6:56 PM 53.6 °F 50.0 °F 88% 30.18 in 10.0 mi NW 3.5 mph - N/A   Mostly Cloudy
7:16 PM 55.4 °F 50.0 °F 82% 30.18 in 10.0 mi NW 4.6 mph - N/A   Mostly Cloudy
7:36 PM 55.4 °F 50.0 °F 82% 30.18 in 10.0 mi NW 5.8 mph - N/A   Mostly Cloudy
7:56 PM 53.6 °F 50.0 °F 88% 30.18 in 10.0 mi WNW 3.5 mph - N/A   Mostly Cloudy
8:16 PM 53.6 °F 50.0 °F 88% 30.18 in 10.0 mi West 3.5 mph - N/A   Mostly Cloudy
8:36 PM 53.6 °F 51.8 °F 94% 30.17 in 10.0 mi Calm Calm - 0.02 in   Mostly Cloudy
8:56 PM 53.6 °F 51.8 °F 94% 30.18 in 10.0 mi Calm Calm - 0.02 in   Mostly Cloudy
9:16 PM 53.6 °F 51.8 °F 94% 30.18 in 10.0 mi Calm Calm - N/A   Mostly Cloudy
9:36 PM 53.6 °F 50.0 °F 88% 30.18 in 10.0 mi Calm Calm - N/A   Mostly Cloudy
9:56 PM 53.6 °F 50.0 °F 88% 30.18 in 10.0 mi Calm Calm - N/A   Mostly Cloudy
10:16 PM 53.6 °F 50.0 °F 88% 30.18 in 10.0 mi Calm Calm - N/A   Mostly Cloudy
10:36 PM 53.6 °F 50.0 °F 88% 30.18 in 10.0 mi Calm Calm - 0.01 in   Mostly Cloudy
10:56 PM 53.6 °F 50.0 °F 88% 30.18 in 10.0 mi NNE 3.5 mph - 0.04 in   Mostly Cloudy
11:16 PM 53.6 °F 50.0 °F 88% 30.18 in 4.0 mi Calm Calm - N/A   Mostly Cloudy
11:36 PM 53.6 °F 50.0 °F 88% 30.18 in 4.0 mi Calm Calm - 0.01 in   Overcast
11:56 PM 53.6 °F 50.0 °F 88% 30.18 in 2.5 mi Calm Calm - 0.01 in   Mostly Cloudy